Weather History for Morris, IL

Change the Weather History Date:

Tuesday, March 12, 2013

  Actual Average (KLOT) Record (KLOT)
Temperature  
Mean Temperature 34 °F 37 °F  
Max Temperature 39 °F 46 °F 69 °F (1995)
Min Temperature 28 °F 28 °F 0 °F (1998)
Degree Days  
Heating Degree Days 32 28  
Month to date heating degree days 361  
Since 1 July heating degree days 5089  
Cooling Degree Days 0 0  
Month to date cooling degree days 0  
Year to date cooling degree days 0  
Moisture  
Dew Point 27 °F    
Average Humidity 81    
Maximum Humidity 100    
Minimum Humidity 65    
Precipitation  
Precipitation 0.00 in 0.09 in 0.55 in (2014)
Month to date precipitation 1.04  
Year to date precipitation 4.75  
Snow  
Snow 0.00 in 0.10 in 0.00 in (2013)
Month to date snowfall 2.5  
Since 1 July snowfall 29.9  
Snow Depth -    
Sea Level Pressure  
Sea Level Pressure 29.93 in    
Wind  
Wind Speed 18 mph (West)    
Max Wind Speed 28 mph    
Max Gust Speed 33 mph    
Visibility 9 miles    
Events Snow    
T = Trace of Precipitation, MM = Missing Value Source: NWS Daily Summary

Daily Weather History Graph

Daily Weather History Graph

Search for Another Location

Airport:

Trip Planner

Search our weather history database for the weather conditions in past years. The results will help you decide how hot, cold, wet, or windy it might be!

Date:

Astronomy

Mar. 12, 2013 Rise Set
Actual Time 7:09 AM CDT 6:57 PM CDT
Civil Twilight 6:42 AM CDT 7:24 PM CDT
Nautical Twilight 6:10 AM CDT 7:56 PM CDT
Astronomical Twilight 5:37 AM CDT 8:29 PM CDT
Moon 7:15 AM CDT (3/12) 8:13 PM CDT (3/12)
Length of Visible Light 12h 42m
Length of Day
11h 47m
New Moon, 1% of the Moon is Illuminated
Mar 12
New Moon
Mar 19
First Quarter
Mar 27
Full
Apr 2
Last Quarter
Apr 10
New

Hourly Weather History & Observations

Time (CDT) Temp. Windchill Dew Point Humidity Pressure Visibility Wind Dir Wind Speed Gust Speed Precip Events Conditions
12:15 AM 32.5 °F 21.9 °F 31.6 °F 96% 29.83 in 10.0 mi West 16.1 mph 23.0 mph N/A   Overcast
12:35 AM 32.5 °F 22.3 °F 31.3 °F 95% 29.84 in 10.0 mi West 15.0 mph - N/A   Overcast
12:55 AM 32.4 °F 20.6 °F 30.9 °F 94% 29.84 in 10.0 mi West 19.6 mph 24.2 mph N/A   Overcast
1:15 AM 32.4 °F 21.3 °F 30.9 °F 94% 29.84 in 10.0 mi West 17.3 mph 23.0 mph N/A   Overcast
1:35 AM 32.0 °F 19.8 °F 30.0 °F 92% 29.84 in 10.0 mi West 20.7 mph 28.8 mph N/A   Overcast
1:55 AM 32.0 °F 19.8 °F 30.0 °F 92% 29.85 in 10.0 mi West 20.7 mph 27.6 mph N/A   Overcast
2:15 AM 32.0 °F 20.5 °F 29.5 °F 90% 29.85 in 10.0 mi West 18.4 mph 21.9 mph N/A   Overcast
2:35 AM 32.0 °F 19.8 °F 28.4 °F 87% 29.86 in 10.0 mi West 20.7 mph 27.6 mph N/A   Overcast
2:55 AM 31.8 °F 20.2 °F 28.4 °F 87% 29.86 in 10.0 mi West 18.4 mph 25.3 mph N/A   Overcast
3:15 AM 31.8 °F 20.2 °F 28.4 °F 87% 29.86 in 10.0 mi West 18.4 mph 26.5 mph N/A   Overcast
3:35 AM 32.0 °F 20.5 °F 28.4 °F 87% 29.87 in 10.0 mi West 18.4 mph 21.9 mph N/A   Overcast
3:55 AM 31.6 °F 20.7 °F 27.7 °F 85% 29.87 in 10.0 mi West 16.1 mph - N/A   Overcast
4:15 AM 31.5 °F 19.4 °F 27.5 °F 85% 29.87 in 10.0 mi West 19.6 mph 24.2 mph N/A   Overcast
4:35 AM 31.5 °F 20.5 °F 27.9 °F 87% 29.88 in 10.0 mi West 16.1 mph - N/A   Overcast
4:55 AM 31.5 °F 19.8 °F 27.9 °F 87% 29.88 in 10.0 mi West 18.4 mph 23.0 mph N/A   Overcast
5:15 AM 30.7 °F 18.8 °F 27.9 °F 89% 29.89 in 10.0 mi West 18.4 mph 23.0 mph N/A   Overcast
5:35 AM 30.2 °F 17.8 °F 28.4 °F 93% 29.89 in 10.0 mi WNW 19.6 mph - N/A   Overcast
5:55 AM 30.6 °F 19.4 °F 27.5 °F 88% 29.89 in 10.0 mi West 16.1 mph - N/A   Overcast
6:15 AM 30.7 °F 19.6 °F 27.7 °F 88% 29.90 in 10.0 mi WNW 16.1 mph 24.2 mph N/A   Overcast
6:35 AM 30.2 °F 20.8 °F 28.0 °F 92% 29.91 in 10.0 mi West 11.5 mph - N/A   Overcast
6:55 AM 30.4 °F 21.0 °F 27.0 °F 87% 29.91 in 10.0 mi West 11.5 mph - N/A   Mostly Cloudy
7:15 AM 30.2 °F 19.3 °F 27.1 °F 88% 29.91 in 10.0 mi West 15.0 mph 21.9 mph N/A   Mostly Cloudy
7:35 AM 29.3 °F 17.7 °F 26.6 °F 90% 29.92 in 10.0 mi West 16.1 mph - N/A   Scattered Clouds
7:55 AM 29.5 °F 19.9 °F 26.6 °F 89% 29.92 in 10.0 mi West 11.5 mph - N/A   Clear
8:15 AM 30.0 °F 19.5 °F 26.6 °F 87% 29.93 in 10.0 mi West 13.8 mph - N/A   Clear
8:35 AM 30.2 °F 18.9 °F 25.2 °F 82% 29.93 in 10.0 mi West 16.1 mph 20.7 mph N/A   Clear
8:55 AM 30.6 °F 19.4 °F 23.9 °F 76% 29.92 in 10.0 mi West 16.1 mph - N/A   Clear
9:15 AM 31.1 °F 20.1 °F 24.1 °F 75% 29.93 in 10.0 mi West 16.1 mph - N/A   Clear
9:35 AM 31.3 °F 20.7 °F 24.4 °F 76% 29.94 in 10.0 mi West 15.0 mph - N/A   Clear
9:55 AM 32.0 °F 21.2 °F 23.7 °F 71% 29.94 in 10.0 mi West 16.1 mph 19.6 mph N/A   Clear
10:15 AM 32.5 °F 21.9 °F 25.2 °F 74% 29.95 in 10.0 mi West 16.1 mph 20.7 mph N/A   Clear
10:35 AM 33.1 °F 21.9 °F 25.3 °F 73% 29.95 in 10.0 mi West 18.4 mph 25.3 mph N/A   Clear
10:55 AM 32.7 °F 21.8 °F 25.3 °F 74% 29.96 in 10.0 mi West 17.3 mph 23.0 mph N/A   Scattered Clouds
11:15 AM 32.4 °F 21.3 °F 25.5 °F 76% 29.96 in 10.0 mi West 17.3 mph 24.2 mph N/A   Mostly Cloudy
11:35 AM 33.3 °F 22.5 °F 26.6 °F 77% 29.95 in 10.0 mi West 17.3 mph - N/A   Overcast
11:55 AM 34.9 °F 25.7 °F 27.7 °F 75% 29.95 in 10.0 mi West 13.8 mph - N/A   Scattered Clouds
12:15 PM 35.8 °F 26.5 °F 28.4 °F 75% 29.95 in 10.0 mi West 15.0 mph - N/A   Scattered Clouds
12:35 PM 36.5 °F 26.7 °F 28.8 °F 74% 29.94 in 10.0 mi West 17.3 mph 21.9 mph N/A   Scattered Clouds
12:55 PM 36.9 °F 27.5 °F 27.9 °F 70% 29.94 in 10.0 mi West 16.1 mph 24.2 mph N/A   Scattered Clouds
1:15 PM 37.6 °F 26.6 °F 29.3 °F 72% 29.94 in 10.0 mi West 23.0 mph 27.6 mph N/A   Scattered Clouds
1:35 PM 37.9 °F 28.2 °F 29.7 °F 72% 29.94 in 10.0 mi West 18.4 mph 27.6 mph N/A   Scattered Clouds
1:55 PM 37.9 °F 28.9 °F 28.6 °F 69% 29.93 in 10.0 mi West 16.1 mph 25.3 mph N/A   Scattered Clouds
2:15 PM 39.6 °F 30.6 °F 29.5 °F 67% 29.93 in 10.0 mi West 17.3 mph - N/A   Scattered Clouds
2:35 PM 38.8 °F 29.7 °F 28.0 °F 65% 29.93 in 10.0 mi West 17.3 mph 25.3 mph N/A   Mostly Cloudy
2:55 PM 38.1 °F 28.1 °F 28.2 °F 68% 29.92 in 10.0 mi West 19.6 mph 23.0 mph N/A   Overcast
3:15 PM 35.2 °F 25.0 °F 31.6 °F 87% 29.94 in 1.8 mi West 17.3 mph 33.4 mph N/A Snow Light Snow
3:35 PM 33.6 °F 24.1 °F 33.6 °F 100% 29.94 in 0.5 mi West 13.8 mph - N/A Snow Snow
3:55 PM 33.8 °F 23.2 °F 33.8 °F 100% 29.94 in 1.2 mi West 17.3 mph 24.2 mph N/A Snow Light Snow
4:15 PM 34.7 °F 24.3 °F 34.7 °F 100% 29.94 in 5.0 mi West 17.3 mph 24.2 mph N/A Snow Light Snow
4:35 PM 34.7 °F 23.7 °F 32.4 °F 91% 29.94 in 10.0 mi West 19.6 mph 26.5 mph N/A   Overcast
4:55 PM 35.2 °F 23.5 °F 30.9 °F 84% 29.94 in 10.0 mi West 23.0 mph 32.2 mph N/A   Mostly Cloudy
5:15 PM 35.6 °F 25.2 °F 30.2 °F 81% 29.94 in 10.0 mi West 18.4 mph 25.3 mph N/A   Scattered Clouds
5:35 PM 35.4 °F 23.5 °F 29.1 °F 78% 29.94 in 10.0 mi West 24.2 mph 28.8 mph N/A   Clear
5:55 PM 34.9 °F 23.6 °F 29.1 °F 79% 29.94 in 10.0 mi West 20.7 mph 24.2 mph N/A   Mostly Cloudy
6:15 PM 33.6 °F 21.6 °F 29.8 °F 86% 29.95 in 1.2 mi West 21.9 mph 31.1 mph N/A Snow Light Snow
6:35 PM 32.0 °F 20.1 °F 30.2 °F 93% 29.96 in 2.0 mi West 19.6 mph 29.9 mph N/A Snow Light Snow
6:55 PM 32.9 °F 22.0 °F 28.9 °F 85% 29.96 in 10.0 mi West 17.3 mph - N/A   Overcast
7:15 PM 33.1 °F 21.9 °F 28.4 °F 83% 29.96 in 10.0 mi West 18.4 mph 25.3 mph N/A   Overcast
7:35 PM 32.9 °F 19.3 °F 27.3 °F 80% 29.97 in 10.0 mi West 27.6 mph 32.2 mph N/A   Overcast
7:55 PM 32.0 °F 19.2 °F 24.6 °F 74% 29.98 in 10.0 mi West 23.0 mph 29.9 mph N/A   Overcast
8:15 PM 32.0 °F 18.6 °F 24.1 °F 73% 29.99 in 10.0 mi WNW 25.3 mph 33.4 mph N/A   Overcast
8:35 PM 32.0 °F 18.6 °F 23.0 °F 69% 30.00 in 10.0 mi WNW 25.3 mph 32.2 mph N/A   Mostly Cloudy
8:55 PM 30.9 °F 18.4 °F 21.0 °F 67% 30.01 in 10.0 mi WNW 20.7 mph 32.2 mph N/A   Scattered Clouds
9:15 PM 30.6 °F 18.2 °F 22.1 °F 71% 30.01 in 10.0 mi WNW 19.6 mph 25.3 mph N/A   Mostly Cloudy
9:35 PM 30.2 °F 17.1 °F 22.3 °F 72% 30.02 in 10.0 mi WNW 21.9 mph 31.1 mph N/A   Overcast
9:55 PM 29.8 °F 17.3 °F 21.4 °F 71% 30.02 in 10.0 mi WNW 19.6 mph 31.1 mph N/A   Overcast
10:15 PM 29.3 °F 16.6 °F 21.7 °F 73% 30.02 in 10.0 mi WNW 19.6 mph 26.5 mph N/A   Overcast
10:35 PM 29.3 °F 16.6 °F 21.9 °F 74% 30.03 in 10.0 mi WNW 19.6 mph 27.6 mph N/A   Overcast
10:55 PM 28.9 °F 15.1 °F 21.9 °F 75% 30.03 in 10.0 mi WNW 23.0 mph 28.8 mph N/A   Overcast
11:15 PM 28.9 °F 16.1 °F 22.1 °F 76% 30.04 in 10.0 mi WNW 19.6 mph 28.8 mph N/A   Overcast
11:35 PM 28.8 °F 15.5 °F 21.4 °F 74% 30.04 in 10.0 mi WNW 20.7 mph 26.5 mph N/A   Overcast
11:55 PM 28.6 °F 15.3 °F 21.2 °F 74% 30.04 in 10.0 mi WNW 20.7 mph 27.6 mph N/A   Overcast